| time (UTC) | temp F | wind direction | speed MPH | gust MPH | rain 1hr in | rain 24hr in | rain mn in | humidity % | barometer mb |
| 20260504234600 | 75 | 239 | 3.0 | 14.0 | 0.00 | 0.00 | 0.00 | 49 | 988.5 |
| 20260504233109 | 75 | 222 | 0.0 | 13.0 | 0.00 | 0.00 | 0.00 | 49 | 988.5 |
| 20260504231625 | 76 | 211 | 5.0 | 18.0 | 0.00 | 0.00 | 0.00 | 47 | 988.6 |
| 20260504230100 | 76 | 199 | 2.0 | 8.0 | 0.00 | 0.00 | 0.00 | 47 | 988.5 |
| 20260504230002 | 76 | 112 | 2.0 | 7.0 | 0.00 | 0.00 | 0.00 | 47 | 988.5 |
| 20260504224615 | 77 | 318 | 3.0 | 9.0 | 0.00 | 0.00 | 0.00 | 44 | 988.5 |
| 20260504223101 | 78 | 35 | 3.0 | 10.0 | 0.00 | 0.00 | 0.00 | 42 | 988.5 |
| 20260504221646 | 78 | 230 | 5.0 | 15.0 | 0.00 | 0.00 | 0.00 | 43 | 988.7 |
| 20260504220100 | 79 | 123 | 4.0 | 15.0 | 0.00 | 0.00 | 0.00 | 42 | 988.6 |
| 20260504220002 | 79 | 212 | 5.0 | 15.0 | 0.00 | 0.00 | 0.00 | 41 | 988.6 |
| 20260504214603 | 79 | 212 | 2.0 | 11.0 | 0.00 | 0.00 | 0.00 | 43 | 988.6 |
| 20260504213102 | 79 | 123 | 4.0 | 13.0 | 0.00 | 0.00 | 0.00 | 42 | 988.7 |
| 20260504211559 | 79 | 193 | 1.0 | 12.0 | 0.00 | 0.00 | 0.00 | 45 | 988.8 |
| 20260504210100 | 78 | 146 | 5.0 | 12.0 | 0.00 | 0.00 | 0.00 | 46 | 989.0 |
| 20260504210001 | 78 | 171 | 4.0 | 12.0 | 0.00 | 0.00 | 0.00 | 46 | 989.0 |
| 20260504204559 | 78 | 131 | 3.0 | 13.0 | 0.00 | 0.00 | 0.00 | 46 | 989.0 |
| 20260504203058 | 80 | 218 | 6.0 | 16.0 | 0.00 | 0.00 | 0.00 | 43 | 989.3 |
| 20260504201602 | 80 | 253 | 2.0 | 12.0 | 0.00 | 0.00 | 0.00 | 42 | 989.5 |
| 20260504200058 | 80 | 278 | 4.0 | 14.0 | 0.00 | 0.00 | 0.00 | 42 | 989.7 |
| 20260504200004 | 80 | 143 | 3.0 | 14.0 | 0.00 | 0.00 | 0.00 | 43 | 989.7 |
| 20260504193059 | 80 | 265 | 5.0 | 14.0 | 0.00 | 0.00 | 0.00 | 43 | 990.1 |
| 20260504191622 | 79 | 165 | 4.0 | 10.0 | 0.00 | 0.00 | 0.00 | 45 | 990.1 |
| 20260504190109 | 79 | 245 | 3.0 | 19.0 | 0.00 | 0.00 | 0.00 | 45 | 990.4 |
| 20260504190001 | 79 | 189 | 3.0 | 19.0 | 0.00 | 0.00 | 0.00 | 47 | 990.4 |
| 20260504184606 | 79 | 237 | 5.0 | 14.0 | 0.00 | 0.00 | 0.00 | 45 | 990.4 |
| 20260504183058 | 79 | 239 | 5.0 | 11.0 | 0.00 | 0.00 | 0.00 | 47 | 990.5 |
| 20260504181604 | 79 | 95 | 2.0 | 9.0 | 0.00 | 0.00 | 0.00 | 48 | 990.6 |
| 20260504180059 | 78 | 222 | 3.0 | 17.0 | 0.00 | 0.00 | 0.00 | 49 | 991.1 |
| 20260504180003 | 78 | 245 | 5.0 | 17.0 | 0.00 | 0.00 | 0.00 | 49 | 991.1 |
| 20260504174558 | 78 | 293 | 6.0 | 12.0 | 0.00 | 0.00 | 0.00 | 50 | 991.2 |
| 20260504173104 | 78 | 241 | 4.0 | 17.0 | 0.00 | 0.00 | 0.00 | 51 | 991.3 |
| 20260504171604 | 77 | 179 | 3.0 | 16.0 | 0.00 | 0.00 | 0.00 | 51 | 991.6 |
| 20260504140106 | 67 | 234 | 5.0 | 9.0 | 0.00 | 0.00 | 0.00 | 67 | 993.1 |
| 20260504081558 | 45 | 247 | 0.0 | 0.0 | 0.00 | 0.00 | 0.00 | 94 | 992.3 |
| 20260504060106 | 50 | 218 | 0.0 | 2.0 | 0.00 | 0.00 | 0.00 | 88 | 993.4 |
| 20260504050120 | 49 | 230 | 0.0 | 0.0 | 0.00 | 0.00 | 0.00 | 88 | 993.6 |
| 20260504050003 | 49 | 231 | 0.0 | 0.0 | 0.00 | 0.00 | 0.00 | 88 | 993.6 |
| 20260504044600 | 50 | 231 | 0.0 | 0.0 | 0.00 | 0.00 | 0.00 | 87 | 993.7 |
| 20260504043108 | 50 | 243 | 0.0 | 0.0 | 0.00 | 0.00 | 0.00 | 87 | 993.9 |
| 20260504041601 | 51 | 243 | 0.0 | 0.0 | 0.00 | 0.00 | 0.00 | 86 | 994.0 |
| 20260504040111 | 52 | 243 | 0.0 | 2.0 | 0.00 | 0.00 | 0.00 | 85 | 994.0 |
| 20260504040006 | 52 | 243 | 0.0 | 2.0 | 0.00 | 0.00 | 0.00 | 85 | 994.0 |
| 20260504034615 | 52 | 210 | 0.0 | 2.0 | 0.00 | 0.00 | 0.00 | 83 | 994.1 |
| 20260504033102 | 52 | 177 | 0.0 | 0.0 | 0.00 | 0.00 | 0.00 | 82 | 994.1 |
| 20260504031613 | 52 | 181 | 0.0 | 2.0 | 0.00 | 0.00 | 0.00 | 81 | 994.1 |
| 20260504030115 | 52 | 191 | 0.0 | 2.0 | 0.00 | 0.00 | 0.00 | 81 | 994.2 |
| 20260504030002 | 52 | 114 | 0.0 | 1.0 | 0.00 | 0.00 | 0.00 | 81 | 994.2 |
| 20260504024600 | 53 | 119 | 0.0 | 2.0 | 0.00 | 0.00 | 0.00 | 80 | 994.1 |
| 20260504023103 | 53 | 212 | 0.0 | 0.0 | 0.00 | 0.00 | 0.00 | 78 | 994.3 |
| 20260504023002 | 53 | 213 | 0.0 | 0.0 | 0.00 | 0.00 | 0.00 | 78 | 994.3 |
| 20260504021608 | 54 | 212 | 0.0 | 0.0 | 0.00 | 0.00 | 0.00 | 77 | 994.3 |
| 20260504020059 | 55 | 212 | 0.0 | 0.0 | 0.00 | 0.00 | 0.00 | 75 | 994.2 |
| 20260504020002 | 55 | 213 | 0.0 | 0.0 | 0.00 | 0.00 | 0.00 | 75 | 994.2 |
| 20260504014559 | 56 | 213 | 0.0 | 1.0 | 0.00 | 0.00 | 0.00 | 71 | 994.0 |
| 20260504013059 | 58 | 212 | 0.0 | 0.0 | 0.00 | 0.00 | 0.00 | 70 | 993.7 |
| 20260504011559 | 59 | 212 | 0.0 | 0.0 | 0.00 | 0.00 | 0.00 | 67 | 993.5 |
| 20260504010059 | 60 | 219 | 0.0 | 1.0 | 0.00 | 0.00 | 0.00 | 64 | 993.5 |
| 20260504010001 | 60 | 219 | 0.0 | 1.0 | 0.00 | 0.00 | 0.00 | 64 | 993.5 |
| 20260504004559 | 62 | 220 | 0.0 | 2.0 | 0.00 | 0.00 | 0.00 | 63 | 993.4 |